Location: Newark
(29.9790°N, 31.1340°E)
Time: 10:09:10
(UTC+00:00)

Vanguard 3 - Visible Passes

Search period start: 17 January 2021 00:00
Search period end: 27 January 2021 00:00
Orbit: 508 x 3262 km, 33.4° (Epoch: 16 January)

Date Brightness Start Highest point End Pass type
(mag) Time Alt. Az. Time Alt. Az. Time Alt. Az.
17 Jan 8.7 02:00:22 51° S 02:01:56 56° SSE 02:14:56 10° ENE visible
17 Jan 9.3 04:05:34 10° W 04:15:50 82° N 04:33:43 10° E visible
18 Jan 9.9 00:50:48 26° ESE 00:50:48 26° ESE 00:56:52 10° E visible
18 Jan 8.7 02:55:23 35° WSW 03:00:04 85° SSE 03:15:21 10° ENE visible
19 Jan 8.6 01:45:45 61° SE 01:45:45 61° SE 01:57:23 10° ENE visible
19 Jan 9.1 03:50:19 14° W 03:59:02 79° N 04:16:00 10° E visible
20 Jan 10.1 00:36:03 21° E 00:36:03 21° E 00:39:44 10° E visible
20 Jan 8.4 02:40:38 51° WSW 02:43:27 89° N 02:57:40 10° ENE visible
21 Jan 8.8 01:30:53 52° E 01:30:53 52° E 01:39:55 10° ENE visible
21 Jan 8.9 03:35:27 21° W 03:42:20 77° N 03:58:19 10° E visible
22 Jan 10.4 00:21:07 15° E 00:21:07 15° E 00:22:39 10° E visible
22 Jan 8.1 02:25:41 69° W 02:26:55 84° NNW 02:40:04 10° ENE visible
23 Jan 9.2 01:15:52 39° E 01:15:52 39° E 01:22:32 10° ENE visible
23 Jan 8.8 03:20:25 28° W 03:25:43 74° N 03:40:40 10° E visible
24 Jan 8.1 02:10:35 78° N 02:10:35 78° N 02:22:33 10° ENE visible
24 Jan 9.2 04:15:24 10° WNW 04:24:46 80° N 04:41:33 10° E visible
25 Jan 9.7 01:00:44 28° ENE 01:00:44 28° ENE 01:05:17 10° ENE visible
25 Jan 8.5 03:05:17 37° WNW 03:09:12 73° N 03:23:05 10° E visible
26 Jan 8.3 01:55:25 63° NE 01:55:25 63° NE 02:05:09 10° E visible
26 Jan 9.0 03:59:58 13° WNW 04:08:03 82° NNE 04:23:50 10° ESE visible
